Powrót do katalogu

COSMOS 1854

AktywnyMilitariaLEO
NORAD 18115·PAYLOAD·🇷🇺 Russia

Wystrzelony Jun 16, 1987 z Plesetsk Cosmodrome

Loading…

Następne Przeloty (najbliższe 24 godziny)

TLE

ŚwieżeSource: Space-Track

Epoka: Sep 14, 2026, 08:33 UTC

1 18115U 87051C   26257.35688013 -.00000022  00000-0 -39555-4 0  9990
2 18115  74.0016 226.4025 0015050 290.1321 223.2241 12.48829133789210

Śledź COSMOS 1854 w czasie rzeczywistym z AllMySat

Download on the App Store